Location: Marcé
(47.5801°N, 0.3280°W)
Time: 21:09:26
(UTC+01:00)

Altair - Pass Details

Date: 17 December 2021
Orbit: 1501 x 1683 km, 47.2° (Epoch: 20 January)

Event Time Altitude Azimuth Distance (km) Brightness Sun altitude
Rises 21:13:10 0° 284° (WNW) 4,691 10.9 -39.6°
Reaches altitude 10° 21:18:59 10° 256° (WSW) 3,673 10.1 -40.6°
Maximum altitude 21:21:53 12° 237° (WSW) 3,515 9.8 -41.1°
Drops below altitude 10° 21:24:46 10° 219° (SW) 3,649 9.7 -41.6°
Sets 21:30:33 0° 190° (S) 4,619 10.0 -42.5°
